FENGYUN 1C DEB

Satellite information

Favourite Embed

Satellite Type and Status

DEBRISIN ORBIT

Key statistics

Satellite FENGYUN 1C DEB at a glance.

Uptime

9714

Days in orbit

Revolutions

≈ 14.2

Per day

Orbit

SSO

Sun Synchronous Orbit

Inclination

99.7

Latest

Satellite identification and parameters

Extended collection of information and parameters for FENGYUN 1C DEB.

Object identification

Identified? True

Debris? True

Object name: FENGYUN 1C DEB

International designator: 1999-025AYE

Object number (NORAD): 30892

Object ID (CCSDS): 30892

Country: PEOPLES REPUBLIC OF CHINA (PRC)

Current information (Y/N): Y

RCS size: SMALL

Orbital parameters

Period: 101.488 minutes

Inclination: 99.6617 deg

SMA: 7207.234 km

Apoapsis: 856.219 km

Periapsis: 801.979 km

RAAN: 278.9389 deg

Eccentricy: 0.00376287

Argument of periapsis: 217.7485 deg

Mean anomaly: 142.1047 deg

Mean motion: 14.18893658 rev/day

Mean motion (dot): 0.00001078 rev/day2

B* drag term: 0.00053864396 1/REarth

Two-line elements (TLE)

Creation date: Dec. 3, 2025, 2:22 a.m.

Reference frame: TEME

Reference center: EARTH

Epoch: Dec. 2, 2025, 3:45 p.m. UTC

TLE line 0: 0 FENGYUN 1C DEB

TLE line 1: 1 30892U 99025AYE 25336.65662348 .00001078 00000-0 53864-3 0 9991

TLE line 2: 2 30892 99.6617 278.9389 0037629 217.7485 142.1047 14.18893658641608

Live tracking on map

Real-time ground track for satellite FENGYUN 1C DEB.

In-orbit conjunctions

A list of the most updated potential collisions computed for object FENGYUN 1C DEB.

Target Orbit TCA Probability of collision Miss distance Type
CZ-6A DEB LEO 2025-02-02 06:45:09 0.0004328175 508.0 (m) DEBRIS

Associated space launch

Chinese polar orbiting meteorological satellite

FENGYUN 1C DEB was lifted into orbit during the mission ‘Long March 4B | Feng Yun 1C’, on board a Long March 4B space rocket.

The launch took place on May 10, 1999, 1:33 a.m. from Launch Complex 7.

For more information about the launch, click the button.

Launch to space Long March 4B | Feng Yun 1C
Long March 4B | Feng Yun 1C

Agency: N/A

Status: Launch Successful

Launch date: May 10, 1999, 1:33 a.m. UTC

Rocket: Long March 4B

Launch pad: Launch Complex 7

Location: Taiyuan Satellite Launch Center, People's Republic of China

...

Latest news about this satellite

There are no fresh news available about this satellite. Check back as we update our databases every day.


Newsletter sign-up

Weekly statistics, charts and insights to help you stay on top of the space industry.